Notices

What's New in latest Release from April 7th, 2021:

- Updated Glossary, including Speed of Maximum Gust, and Total Hourly Precipitation

- Updated national and regional climate services offices contacts and prices information

- Addition of station inventory lists for 1981-2010, 1971-2000, and 1961-1990 Normals.

If you haven't already, please take our survey and provide feedback about our website: https://eccc.sondage-survey.ca/f/LanguageSelection.aspx?s=442ca660-fcf1-47c0-95a9-59707d6fd709

Hourly Data Report for December 22, 2004

TORONTO CITY
ONTARIO

43°40'00.000" N
79°24'00.000" W
112.50 m
6158355
71508
XTO

Download Data

Hourly Data (December 2004)
Hourly Data Report for December 22, 2004
TIME
LST
Temp Definition
°C
Dew Point Definition
°C
Rel Hum Definition
%
Precip. Amount Definition
mm

Wind Dir Definition
10's deg

Wind Spd Definition
km/h
Visibility Definition
km
Stn Press Definition
kPa
Hmdx Definition


Wind Chill Definition


Weather Definition


00:00 3.4 0.3 80   LegendMM LegendMM LegendMM 99.99     LegendNANA
01:00 3.2 -0.3 78   LegendMM LegendMM LegendMM 100.01     LegendNANA
02:00 2.7 -1.3 75   LegendMM LegendMM LegendMM 100.03     LegendNANA
03:00 2.2 -2.5 71   LegendMM LegendMM LegendMM 100.09     LegendNANA
04:00 1.5 -2.5 75   LegendMM LegendMM LegendMM 100.14     LegendNANA
05:00 0.4 -3.5 75   LegendMM LegendMM LegendMM 100.17     LegendNANA
06:00 0.0 -4.7 71   LegendMM LegendMM LegendMM 100.29     LegendNANA
07:00 -0.2 -5.5 67   LegendMM LegendMM LegendMM 100.34     LegendNANA
08:00 -0.5 -6.1 66   LegendMM LegendMM LegendMM 100.38     LegendNANA
09:00 -0.6 -6.3 65   LegendMM LegendMM LegendMM 100.44     LegendNANA
10:00 -0.4 -6.4 64   LegendMM LegendMM LegendMM 100.52     LegendNANA
11:00 -0.1 -6.2 63   LegendMM LegendMM LegendMM 100.60     LegendNANA
12:00 -0.7 -4.9 73   LegendMM LegendMM LegendMM 100.56     LegendNANA
13:00 -1.2 -3.6 84   LegendMM LegendMM LegendMM 100.51     LegendNANA
14:00 -1.3 -2.8 90   LegendMM LegendMM LegendMM 100.52     LegendNANA
15:00 -1.3 -2.6 91   LegendMM LegendMM LegendMM 100.56     LegendNANA
16:00 -1.4 -2.4 93   LegendMM LegendMM LegendMM 100.68     LegendNANA
17:00 -1.5 -2.3 94   LegendMM LegendMM LegendMM 100.71     LegendNANA
18:00 -1.8 -2.7 94   LegendMM LegendMM LegendMM 100.72     LegendNANA
19:00 -1.6 -2.6 93   LegendMM LegendMM LegendMM 100.83     LegendNANA
20:00 -1.7 -2.6 94   LegendMM LegendMM LegendMM 100.85     LegendNANA
21:00 -1.8 -2.7 94   LegendMM LegendMM LegendMM 100.86     LegendNANA
22:00 -2.4 -3.3 94   LegendMM LegendMM LegendMM 100.80     LegendNANA
23:00 -2.3 -3.0 95   LegendMM LegendMM LegendMM 100.77     LegendNANA

Notes on Data Quality.

Legend

  • E = Estimated
  • M = Missing
  • NA = Not Available*
  • [empty] = Indicates an unobserved value
Date modified: